KUIPER-00117

导读 | 豆包AI

KUIPER-00117是美国亚马逊“柯伊伯计划”(现称亚马逊低轨星座)的组网卫星,该计划旨在构建全球卫星互联网系统,为服务不足地区提供高速宽带接入。该卫星于2025年10月14日发射入轨,运行在近地轨道,配备相控阵天线与星间激光链路,是亚马逊计划部署的3200余颗第一代低轨卫星之一,助力完成星座组网,挑战星链主导的卫星互联网市场。

基本信息
目录编号:
65949
目录名称:
KUIPER-00117
国际标识:
2025-228C
轨道中心:
EARTH
卫星名称:
KUIPER-00117
卫星全名:
KUIPER-00117
卫星状态:
在轨 (已飞行223 天)
发射日期:
2025-10-14 UTC
国别 :
美国 (US)
星等 :
--
轨道信息
数据来源 国际轨道数据 AOE轨道数据
星历时间 2026-05-24T06:13:51+0800
1天前
查看轨道信息
2026-05-22T22:00:00+0800
2天前
查看轨道信息
半长轴 7007.669km 7007.677km
偏心率 0.0000841 0.0001146
轨道倾角 51.899° 51.902°
近地点辐角 106.298° 129.212°
升交点赤经 25.387° 31.329°
平近点角 253.807° 271.636°
近地点 628.942km 628.736km
远地点 630.122km 630.344km
周期 97.302分钟 97.302分钟
每日圈数 14.799343 14.799319
详细信息
使用方式:
暂无
2D轨道图
3D轨道图
轨道高度分析图
轨道倾角分析图
轨道综合分析图
查看轨道综合分析图